Theta_e
307 307 307 309 310 311 310 310 310 309 312 313 313 314 317 318 315 312 311 313 315 318 317 316 316 315 313 313 316 325 331 333 337 340 340 331 328 334 336 338 338 339 336 335 338
307 307 307 307 308 308 308 309 309 309 312 313 313 315 316 319 317 315 314 315 316 318 317 317 315 315 312 313 313 321 329 330 331 332 332 329 326 322 326 327 335 339 335 338 338
306 306 306 306 306 307 307 308 309 309 313 314 314 316 318 318 313 313 315 315 317 316 317 317 316 313 314 311 311 316 322 325 320 319 319 322 320 321 328 331 332 335 337 339 339
305 305 305 306 306 306 307 308 308 309 315 314 314 318 321 315 315 315 317 317 317 317 317 315 312 312 312 312 311 312 312 312 313 315 314 316 316 318 325 324 324 330 333 339 339
305 305 305 306 306 306 306 307 308 313 315 315 316 320 319 314 315 316 317 318 318 318 317 315 315 314 315 313 312 311 311 312 313 313 313 312 313 313 315 320 323 331 334 338 339
306 306 306 306 306 306 306 310 314 314 314 316 318 319 317 317 316 317 317 318 318 318 317 316 316 316 315 314 314 312 312 313 313 313 312 313 313 313 315 313 316 332 336 335 339
307 307 307 307 307 308 312 313 312 313 316 316 319 317 318 317 317 317 318 318 318 318 317 317 317 316 315 316 314 315 315 313 314 313 313 312 314 312 312 311 316 327 335 335 336
306 304 303 306 309 312 314 311 314 316 316 318 320 320 316 319 318 318 318 318 318 318 318 318 317 316 315 314 315 316 314 318 317 314 315 314 318 314 311 311 310 309 318 335 335
302 301 301 304 311 315 310 316 316 317 319 319 319 318 315 317 317 318 318 318 318 317 317 317 316 315 315 316 316 315 320 318 318 314 316 314 317 314 312 311 310 308 307 320 335
302 301 302 308 312 313 311 318 317 315 319 320 318 311 312 314 317 318 318 318 317 316 315 315 313 315 314 316 322 321 319 319 318 318 317 317 316 314 313 311 309 308 306 306 326
301 301 305 310 311 309 310 311 308 308 313 315 315 315 315 317 317 317 318 317 316 314 316 314 317 317 317 317 317 317 320 320 319 318 318 317 317 315 314 311 309 307 307 306 307
301 301 306 310 311 309 309 312 313 314 312 314 315 315 317 318 317 315 318 317 317 317 315 314 316 316 317 320 320 320 321 321 319 318 317 319 319 318 315 313 310 310 307 305 306
301 301 306 310 311 312 311 312 313 315 314 316 318 318 317 318 317 316 317 316 317 317 317 317 315 317 317 320 321 320 321 320 321 321 320 321 319 315 314 310 308 312 314 314 315
301 301 306 309 310 312 312 313 313 316 313 316 318 317 317 317 316 317 317 317 317 318 317 314 313 313 317 320 320 320 319 321 324 322 325 321 322 318 315 313 318 318 317 317 317
301 301 303 310 312 311 312 314 315 314 317 316 317 317 309 317 315 315 313 317 318 314 315 309 310 312 319 318 318 318 318 322 321 322 318 322 321 314 317 320 320 320 320 319 319
301 301 301 310 312 312 314 315 315 313 319 317 315 311 312 313 313 313 310 309 311 310 310 311 309 314 319 317 317 318 321 317 315 315 321 324 320 317 322 322 321 321 321 323 324
301 301 302 310 310 312 315 311 311 316 314 317 313 311 311 312 313 311 310 309 310 309 308 308 309 310 316 313 313 320 319 319 317 316 318 322 325 322 321 323 326 324 324 325 326
302 301 306 311 312 313 314 308 315 317 316 313 311 311 313 311 312 310 312 311 310 309 308 310 309 311 312 313 313 321 320 321 327 324 322 319 323 324 319 319 323 323 322 324 326
302 303 309 312 313 314 306 311 312 314 314 312 309 312 311 310 311 309 312 312 311 310 311 311 310 309 311 311 316 317 320 319 321 315 321 314 321 322 318 317 319 323 321 320 319
303 306 308 314 313 310 308 313 313 312 311 311 311 312 311 310 312 310 311 312 311 311 308 310 311 309 309 313 313 319 316 321 317 319 324 320 316 319 318 318 319 322 319 315 313
304 300 310 314 311 305 310 310 311 310 311 310 311 311 312 313 311 311 311 311 310 311 309 309 308 307 308 310 311 310 310 317 318 321 321 324 318 314 314 316 319 320 317 314 312
303 300 311 311 307 304 309 310 311 310 309 310 310 311 312 312 311 311 311 310 307 308 307 309 306 309 308 307 307 310 309 314 317 319 320 320 321 311 311 313 315 314 314 311 309
300 299 309 308 307 308 309 310 310 310 310 310 311 311 310 311 311 310 311 309 305 305 306 308 306 305 303 306 306 309 309 310 314 312 315 311 311 308 310 310 311 311 309 308 306
299 301 305 303 303 308 308 310 310 309 310 309 309 310 310 311 309 310 310 308 304 310 312 308 306 304 303 304 307 308 308 310 310 308 307 309 309 309 309 311 310 308 307 305 305
298 301 305 309 308 306 307 309 309 310 309 309 310 309 308 307 308 308 307 304 303 306 303 301 304 306 306 306 306 307 308 310 309 308 308 308 310 312 310 310 310 308 306 305 305
297 298 301 305 306 306 309 308 309 309 309 310 306 307 305 305 307 309 305 304 302 303 301 298 298 304 305 308 309 310 310 310 308 306 308 310 310 309 309 308 309 307 306 305 304
300 301 303 305 306 307 307 309 309 308 306 306 306 304 304 304 303 303 301 301 302 302 301 301 301 306 307 307 309 312 310 309 307 309 307 310 309 309 310 309 309 308 306 304 303
Wind_Speed
9 9 8 8 9 11 13 15 16 19 20 17 14 11 5 4 8 9 5 5 7 13 13 10 7 7 2 2 2 2 1 2 2 2 3 2 5 2 2 3 2 4 3 4 24
8 8 8 9 10 12 13 14 15 17 19 17 12 9 5 2 4 5 7 7 10 12 11 10 6 7 3 3 3 3 3 5 4 2 4 6 3 4 3 4 4 2 5 17 24
8 9 10 11 11 12 13 13 14 16 16 15 12 8 6 1 3 3 8 8 9 10 8 5 3 2 3 3 4 2 3 3 4 5 5 5 6 4 4 5 8 6 7 12 17
11 11 11 11 12 12 13 13 14 15 14 12 11 6 4 3 4 5 7 7 7 8 7 6 5 4 3 3 3 2 6 4 4 3 3 5 4 4 8 9 10 9 10 14 16
11 12 12 12 13 13 13 13 13 13 13 10 8 5 2 5 0 5 6 7 6 8 7 3 4 2 3 3 5 3 3 5 7 9 6 6 8 7 8 9 11 4 10 17 16
11 12 13 14 15 15 14 13 14 14 12 7 5 3 3 3 4 6 7 7 6 5 3 3 1 1 1 1 0 3 5 8 7 7 5 4 7 2 5 6 9 6 9 13 16
13 13 15 16 17 16 15 16 15 12 4 2 3 1 1 3 5 8 8 7 8 5 2 2 1 3 1 4 2 3 4 7 1 4 6 3 6 5 6 5 6 7 3 7 11
14 15 17 17 16 15 16 17 6 1 1 3 4 1 3 3 8 9 6 5 6 5 3 3 0 1 1 4 5 4 3 4 7 5 4 0 7 12 7 6 11 7 6 7 10
14 17 18 17 14 16 18 6 3 5 3 2 2 2 4 6 5 8 4 4 10 2 3 1 2 2 4 3 4 5 4 4 7 4 4 3 7 8 10 7 8 9 7 5 8
16 19 19 17 13 16 11 6 7 4 4 3 3 3 5 4 7 9 4 3 2 5 3 6 4 3 3 4 3 6 5 4 6 5 0 9 11 12 12 7 8 9 8 8 7
16 19 19 15 13 15 5 1 5 3 8 2 1 2 5 11 5 2 4 2 2 4 3 4 5 3 6 3 6 6 4 7 10 9 4 7 9 13 11 7 8 8 9 9 8
16 19 19 12 7 17 11 7 3 1 2 1 4 5 7 4 4 4 3 4 4 4 3 6 1 4 5 6 5 7 7 8 8 6 4 8 10 15 12 9 7 7 8 8 7
15 19 20 9 2 8 18 6 1 2 3 4 3 3 5 1 3 5 3 1 1 4 2 3 5 4 3 8 6 6 5 5 11 8 2 8 6 6 5 5 6 6 5 7 7
14 17 19 6 1 4 4 6 1 2 4 6 4 2 1 1 2 3 3 0 2 3 4 5 3 4 7 5 2 7 2 6 7 5 4 6 4 5 10 7 6 9 8 9 11
13 15 16 8 2 3 3 4 1 1 3 4 4 2 6 1 2 4 4 1 3 4 3 5 5 5 4 6 2 8 10 2 1 4 3 8 2 6 7 10 16 16 14 14 13
12 14 15 4 2 2 4 0 1 5 0 4 3 6 6 6 5 5 6 5 1 3 2 6 4 2 3 8 1 8 3 3 2 3 3 7 4 5 10 15 16 13 13 14 15
12 13 11 4 1 5 2 3 5 5 3 4 3 5 3 4 5 7 4 7 4 7 7 8 5 4 1 6 4 8 6 5 6 6 3 6 4 4 17 13 8 13 12 11 7
13 12 6 4 4 5 1 4 4 2 3 2 3 4 2 6 4 6 2 4 4 4 2 4 8 6 6 1 3 4 3 3 2 5 5 5 3 5 15 15 12 14 11 12 13
13 7 4 2 2 4 3 4 6 5 3 1 3 4 4 3 2 5 3 0 2 2 3 5 6 5 3 3 2 3 4 1 1 0 2 4 4 5 12 18 15 13 14 15 14
11 6 3 3 1 1 4 4 5 3 4 3 2 1 1 4 5 5 1 2 3 2 3 1 5 2 6 2 4 5 3 3 3 5 6 4 4 7 14 15 14 13 13 12 11
6 2 3 3 1 4 3 5 4 3 4 4 5 2 3 2 1 2 3 1 2 4 3 2 2 7 3 3 1 4 3 3 1 2 1 6 4 3 4 7 11 10 10 11 12
0 1 3 3 3 1 3 5 3 4 2 1 3 4 3 1 2 2 3 3 3 2 4 0 3 5 6 3 3 0 2 3 3 5 2 1 5 2 4 3 3 8 9 8 7
2 2 1 2 4 3 2 2 5 4 4 5 5 3 2 3 1 4 2 2 5 4 2 2 1 4 8 4 4 4 2 0 1 2 2 2 5 1 5 6 5 5 6 5 6
2 1 3 3 1 6 5 5 4 2 4 4 4 3 2 2 4 3 2 1 4 0 6 3 2 5 5 6 1 6 10 1 1 2 2 4 6 6 7 5 5 5 5 5 6
2 5 4 4 4 5 6 8 6 6 3 4 1 5 6 3 2 4 3 3 3 6 3 3 2 3 6 9 5 7 10 7 5 4 3 4 3 4 3 2 3 4 4 6 6
4 4 1 2 3 7 7 9 11 5 8 5 5 8 6 6 8 5 4 2 5 3 3 3 2 4 5 3 1 6 8 7 6 3 5 3 5 3 1 2 3 5 5 5 5
8 2 2 2 5 6 6 7 10 8 5 5 8 6 5 10 7 7 5 4 4 6 1 2 1 2 5 5 9 5 4 4 2 3 4 4 5 1 3 4 3 3 5 6 6
Wind_Direction
16 16 354 346 342 345 344 351 356 352 355 353 2 5 9 34 40 35 27 6 1 5 3 24 24 45 54 44 37 114 79 224 240 198 266 42 21 13 136 288 287 185 232 82 152
13 7 346 340 340 337 340 345 350 350 351 354 357 358 359 309 15 26 14 15 11 1 3 22 7 5 37 14 20 98 133 217 222 292 286 301 295 9 313 292 281 275 64 139 150
7 356 349 347 340 336 335 338 346 345 348 350 354 1 1 322 51 330 6 11 7 356 356 4 8 52 60 10 10 51 204 240 282 274 277 259 291 233 208 260 241 243 174 169 166
3 354 349 345 338 334 331 337 336 337 345 348 354 359 5 57 65 335 1 9 12 14 12 19 20 39 49 8 334 346 243 222 259 254 305 279 277 243 212 227 241 221 181 176 181
355 350 347 344 338 334 333 329 329 331 336 342 351 6 14 35 236 313 343 354 1 6 32 42 46 44 12 324 329 184 259 261 262 284 258 257 255 240 243 248 260 287 184 191 190
357 356 352 346 341 337 333 328 326 321 323 325 346 357 42 66 308 343 332 349 354 352 3 45 90 175 210 267 359 293 287 284 292 280 262 265 270 221 255 245 269 236 195 194 194
358 353 349 347 343 342 336 325 317 312 315 325 9 23 3 234 314 331 324 323 319 324 332 25 90 48 4 315 241 290 324 333 302 297 295 210 316 245 269 326 311 278 199 221 200
353 350 348 347 346 345 336 323 327 3 89 118 38 98 225 312 316 315 318 333 329 320 262 320 192 104 144 309 350 347 61 17 290 318 281 356 277 281 303 356 314 308 290 193 213
352 350 349 349 351 347 345 19 66 96 93 111 49 49 305 326 332 334 317 310 326 329 357 128 81 71 22 31 358 357 282 276 304 203 265 216 282 275 305 332 294 301 301 246 215
352 352 353 350 360 350 356 80 93 68 73 59 56 45 347 301 311 315 312 310 334 330 33 40 47 31 18 57 314 291 294 268 251 268 282 277 266 268 276 278 262 284 290 284 232
350 353 356 358 11 358 18 150 17 357 41 78 283 249 295 313 305 334 323 350 340 49 12 2 47 283 275 255 232 257 244 260 274 276 217 253 267 273 272 281 267 264 270 273 249
346 352 356 351 11 25 45 73 134 247 3 181 265 280 267 325 332 323 339 9 29 306 7 15 269 237 275 279 285 285 274 278 278 274 215 279 287 270 264 259 239 254 272 280 292
342 348 355 354 352 22 63 67 36 167 92 314 239 277 280 102 313 290 21 3 333 309 34 178 258 328 323 310 306 300 249 282 304 325 241 359 279 344 324 308 336 5 326 298 274
338 346 355 6 123 24 47 16 22 181 77 313 351 330 38 101 299 302 351 3 322 298 341 260 287 322 316 281 277 316 231 320 322 24 337 18 310 314 331 327 343 327 321 308 301
334 341 351 21 20 62 337 341 135 251 67 313 303 302 328 173 288 338 5 348 270 306 52 267 309 340 322 283 329 263 319 331 273 77 8 1 319 284 342 333 332 324 328 317 299
327 333 337 340 52 19 340 178 144 46 39 343 346 350 15 10 2 318 13 25 34 360 343 256 299 241 266 305 38 283 4 21 48 68 34 349 357 309 345 319 313 321 328 317 303
319 324 318 293 343 344 345 89 39 95 2 328 339 359 329 317 355 23 25 10 43 5 358 329 317 304 337 341 360 13 9 1 358 8 254 26 18 292 320 326 333 338 338 337 346
315 317 295 256 296 329 223 58 79 176 221 347 11 337 39 9 358 349 58 15 14 58 355 3 333 9 350 37 293 11 66 110 350 337 311 335 4 305 341 349 347 356 353 15 27
320 312 268 208 321 327 69 63 191 200 170 33 343 58 327 349 4 21 32 289 274 53 29 3 282 314 244 322 46 332 30 248 211 221 311 267 344 129 358 347 1 7 10 13 20
325 316 239 172 334 24 73 206 182 199 133 110 143 113 313 308 9 23 292 316 319 69 133 289 305 258 291 136 36 90 163 21 16 22 336 330 314 329 356 353 360 10 10 5 15
310 13 168 161 53 56 172 217 206 190 141 145 183 185 211 277 240 285 276 320 350 318 155 133 115 291 329 42 323 355 31 32 162 128 305 323 305 339 1 15 330 15 20 6 19
206 299 157 163 72 54 170 194 180 161 124 134 133 186 190 232 267 275 257 211 334 266 320 168 157 283 262 285 261 193 41 104 104 303 244 181 284 40 72 40 35 17 20 1 15
189 238 155 176 170 217 251 213 183 136 177 164 190 195 182 206 285 216 258 182 20 1 45 184 328 335 353 7 12 34 346 2 161 65 237 72 293 87 73 50 20 40 20 15 34
113 200 319 48 309 151 161 196 196 205 151 145 160 115 144 234 215 277 267 263 327 52 66 115 150 171 211 226 222 300 307 342 121 100 278 227 296 342 6 45 33 31 40 44 36
146 230 187 200 243 184 165 164 162 170 186 152 92 199 178 203 264 241 230 333 336 333 60 87 246 221 251 261 245 254 268 287 230 221 180 283 247 310 343 16 70 91 81 62 52
158 163 358 194 108 144 170 204 175 172 152 205 188 193 182 182 200 234 186 175 237 355 60 353 281 359 294 264 103 263 255 247 230 221 257 257 284 165 192 106 80 113 112 92 88
185 229 133 176 148 145 206 188 190 150 218 167 180 135 192 232 217 232 204 199 199 170 124 36 107 37 276 332 319 312 225 196 199 187 190 216 232 158 164 139 165 168 159 157 158